GW5170 Weather Reports


time (UTC)temp
F
wind
direction
speed
knots
gust
knots
rain 1hr
in
rain 24hr
in
rain mn
in
humidity
%
barometer
mb
20260905042514 81 338 0.0 0.0 0.00 0.00 0.00 86 1014.1
20260905042004 81 337 0.9 0.9 0.00 0.00 0.00 86 1014.4
20260905041500 81 339 0.9 0.9 0.00 0.00 0.00 86 1014.4
20260905040955 81 346 0.0 0.0 0.00 0.00 0.00 85 1014.4
20260905040454 82 9 0.9 1.7 0.00 0.00 0.00 85 1014.4
20260905035953 82 24 0.9 0.9 0.00 0.00 0.00 84 1014.5
20260905035448 82 19 0.9 0.9 0.00 0.00 0.00 84 1014.5
20260905034946 82 17 1.7 1.7 0.00 0.00 0.00 84 1014.4
20260905034441 82 52 1.7 2.6 0.00 0.00 0.00 83 1014.4
20260905033940 82 32 0.9 1.7 0.00 0.00 0.00 83 1014.4
20260905033439 82 13 0.9 1.7 0.00 0.00 0.00 83 1014.4
20260905032934 82 14 0.9 0.9 0.00 0.00 0.00 83 1014.4
20260905032430 83 349 1.7 1.7 0.00 0.00 0.00 82 1014.4
20260905031924 83 351 0.9 0.9 0.00 0.00 0.00 81 1014.4
20260905031421 82 46 1.7 2.6 0.00 0.00 0.00 82 1014.4
20260905030916 82 11 0.9 1.7 0.00 0.00 0.00 82 1014.4
20260905030411 83 13 0.9 0.9 0.00 0.00 0.00 81 1014.6
20260905025910 83 14 0.0 0.9 0.00 0.00 0.00 81 1014.4
20260905025405 83 52 1.7 1.7 0.00 0.00 0.00 81 1014.4
20260905024902 83 9 0.9 0.9 0.00 0.00 0.00 80 1014.5
20260905024356 83 10 0.9 0.9 0.00 0.00 0.00 80 1014.2
20260905023852 84 4 0.0 0.9 0.00 0.00 0.00 78 1014.1
20260905023347 84 352 0.0 0.0 0.00 0.00 0.00 78 1014.0
20260905022846 84 37 1.7 1.7 0.00 0.00 0.00 78 1014.1
20260905022341 84 38 1.7 1.7 0.00 0.00 0.00 78 1014.1
20260905021836 84 0 0.9 0.9 0.00 0.00 0.00 77 1014.1
20260905021331 84 13 0.0 0.9 0.00 0.00 0.00 76 1013.9
20260905020826 84 2 1.7 2.6 0.00 0.00 0.00 76 1013.6
20260905020321 85 346 1.7 1.7 0.00 0.00 0.00 75 1013.6
20260905015820 85 347 0.0 0.9 0.00 0.00 0.00 74 1013.5
20260905015314 85 18 1.7 1.7 0.00 0.00 0.00 74 1013.4
20260905014813 86 328 1.7 2.6 0.00 0.00 0.00 73 1013.2
20260905014309 85 347 0.0 0.0 0.00 0.00 0.00 73 1012.9
20260905013804 86 301 1.7 1.7 0.00 0.00 0.00 73 1012.6
20260905013300 86 325 0.9 0.9 0.00 0.00 0.00 72 1012.4
20260905012755 86 352 0.9 0.9 0.00 0.00 0.00 71 1012.4
20260905012251 87 319 1.7 1.7 0.00 0.00 0.00 71 1012.6
20260905011748 87 235 3.5 5.2 0.00 0.00 0.00 70 1012.3
20260905011243 87 70 6.1 7.0 0.00 0.00 0.00 70 1012.2
20260905010737 88 231 2.6 3.5 0.00 0.00 0.00 69 1012.3
20260905010232 88 252 7.0 7.8 0.00 0.00 0.00 68 1012.3
20260905005729 89 290 5.2 7.8 0.00 0.00 0.00 66 1012.4
20260905005225 89 251 4.3 6.1 0.00 0.00 0.00 66 1012.4
20260905004724 88 250 6.1 7.0 0.00 0.00 0.00 67 1012.6
20260905004220 89 253 6.1 7.8 0.00 0.00 0.00 67 1012.9
20260905003720 89 262 7.0 7.8 0.00 0.00 0.00 68 1013.0
20260905003216 89 267 4.3 5.2 0.00 0.00 0.00 69 1013.0
20260905002711 89 251 3.5 5.2 0.00 0.00 0.00 68 1013.3
20260905002211 89 271 2.6 3.5 0.00 0.00 0.00 68 1013.4
20260905001706 90 248 2.6 3.5 0.00 0.00 0.00 67 1013.4
20260905001205 90 328 2.6 3.5 0.00 0.00 0.00 66 1013.5
20260905000700 91 290 2.6 2.6 0.00 0.00 0.00 65 1013.7
20260905000156 91 291 1.7 1.7 0.00 0.00 0.00 64 1013.6
20260904235657 91 304 1.7 1.7 0.00 0.00 0.00 64 1013.7
20260904235156 91 322 2.6 2.6 0.00 0.00 0.00 63 1013.6
20260904234651 92 327 0.9 0.9 0.00 0.00 0.00 63 1013.9
20260904234147 92 326 2.6 3.5 0.00 0.00 0.00 62 1013.7
20260904233642 92 291 1.7 2.6 0.00 0.00 0.00 62 1013.7
20260904233138 93 337 1.7 1.7 0.00 0.00 0.00 60 1013.9
20260904232635 93 255 3.5 3.5 0.00 0.00 0.00 60 1013.7
20260904232131 94 327 1.7 1.7 0.00 0.00 0.00 59 1013.7
20260904231626 94 307 3.5 3.5 0.00 0.00 0.00 59 1013.9
20260904231126 94 305 1.7 1.7 0.00 0.00 0.00 58 1013.6
20260904230621 94 271 3.5 5.2 0.00 0.00 0.00 58 1014.0
20260904230116 94 274 4.3 5.2 0.00 0.00 0.00 58 1013.9
20260904225614 94 297 5.2 7.0 0.00 0.00 0.00 58 1013.7
20260904225108 94 273 3.5 6.1 0.00 0.00 0.00 58 1014.0
20260904224603 94 333 1.7 1.7 0.00 0.00 0.00 56 1013.6
20260904224058 95 257 5.2 7.0 0.00 0.00 0.00 56 1013.3
20260904223557 95 289 3.5 5.2 0.00 0.00 0.00 55 1013.2
20260904223053 95 249 7.8 9.6 0.00 0.00 0.00 55 1012.9
20260904222548 95 279 5.2 7.0 0.00 0.00 0.00 55 1012.8
20260904222043 95 251 7.8 9.6 0.00 0.00 0.00 55 1012.8
20260904221538 95 252 7.8 9.6 0.00 0.00 0.00 55 1012.7
20260904221033 95 14 9.6 11.3 0.00 0.00 0.00 55 1012.7
20260904220533 95 250 5.2 7.0 0.00 0.00 0.00 56 1012.6
20260904220029 94 271 6.1 7.8 0.00 0.00 0.00 56 1012.6
20260904215528 95 267 5.2 7.8 0.00 0.00 0.00 55 1012.6
20260904215024 95 215 6.1 7.0 0.00 0.00 0.00 55 1012.6
20260904214520 94 327 6.1 7.8 0.00 0.00 0.00 55 1012.6
20260904214015 95 223 4.3 6.1 0.00 0.00 0.00 54 1012.7
20260904213512 95 237 7.8 11.3 0.00 0.00 0.00 56 1012.9
20260904213010 95 270 8.7 9.6 0.00 0.00 0.00 57 1013.0
20260904212508 95 215 5.2 6.1 0.00 0.00 0.00 56 1012.9
20260904212003 95 288 7.0 8.7 0.00 0.00 0.00 54 1013.1
20260904211458 96 339 2.6 3.5 0.00 0.00 0.00 54 1013.0
20260904210954 96 283 3.5 5.2 0.00 0.00 0.00 55 1013.0
20260904210453 95 236 3.5 3.5 0.00 0.00 0.00 55 1013.0
20260904205949 95 262 7.0 7.8 0.00 0.00 0.00 55 1012.9
20260904205444 95 261 8.7 12.2 0.00 0.00 0.00 54 1013.0
20260904204942 95 265 5.2 7.0 0.00 0.00 0.00 55 1013.0
20260904204442 95 267 4.3 5.2 0.00 0.00 0.00 55 1012.9
20260904203938 95 266 7.8 8.7 0.00 0.00 0.00 55 1012.9
20260904203434 93 274 6.1 7.8 0.00 0.00 0.00 57 1012.9
20260904202930 93 260 3.5 5.2 0.00 0.00 0.00 59 1012.9
20260904202426 93 275 3.5 3.5 0.00 0.00 0.00 59 1012.9
20260904201921 93 259 7.8 7.8 0.00 0.00 0.00 58 1013.0
20260904201416 93 242 5.2 7.8 0.00 0.00 0.00 58 1013.1
20260904200913 93 262 4.3 5.2 0.00 0.00 0.00 58 1013.2
20260904200410 93 243 5.2 7.0 0.00 0.00 0.00 58 1013.2
20260904195907 93 227 4.3 6.1 0.00 0.00 0.00 58 1013.3
20260904195404 93 279 0.9 1.7 0.00 0.00 0.00 58 1013.4
20260904194858 93 274 2.6 3.5 0.00 0.00 0.00 58 1013.6
20260904194358 93 260 4.3 6.1 0.00 0.00 0.00 58 1013.6
20260904193854 93 235 7.8 9.6 0.00 0.00 0.00 58 1014.0
20260904193349 93 281 5.2 6.1 0.00 0.00 0.00 58 1013.4
20260904192844 94 281 5.2 7.0 0.00 0.00 0.00 57 1014.0
20260904192339 93 300 6.1 7.0 0.00 0.00 0.00 56 1013.9
20260904191836 94 289 5.2 6.1 0.00 0.00 0.00 56 1013.9
20260904191332 95 269 9.6 11.3 0.00 0.00 0.00 54 1014.3
20260904190828 94 283 3.5 5.2 0.00 0.00 0.00 56 1014.0
20260904190324 94 214 3.5 5.2 0.00 0.00 0.00 56 1014.1
20260904185820 94 243 7.8 11.3 0.00 0.00 0.00 54 1014.2
20260904185316 94 278 7.0 9.6 0.00 0.00 0.00 55 1014.3
20260904184815 94 247 4.3 5.2 0.00 0.00 0.00 54 1014.3
20260904184310 95 272 4.3 6.1 0.00 0.00 0.00 54 1014.2
20260904183806 95 254 9.6 9.6 0.00 0.00 0.00 54 1014.4
20260904183305 95 266 6.1 7.8 0.00 0.00 0.00 53 1014.3
20260904182800 94 245 7.0 8.7 0.00 0.00 0.00 53 1014.7
20260904182255 94 5 4.3 6.1 0.00 0.00 0.00 54 1014.4
20260904181751 94 8 4.3 7.0 0.00 0.00 0.00 55 1014.7
20260904181251 94 274 4.3 5.2 0.00 0.00 0.00 57 1014.5
20260904180746 94 308 3.5 3.5 0.00 0.00 0.00 55 1014.5
20260904180242 94 242 1.7 3.5 0.00 0.00 0.00 55 1014.5
20260904175741 93 321 2.6 2.6 0.00 0.00 0.00 55 1014.6
20260904175239 94 270 5.2 6.1 0.00 0.00 0.00 55 1014.7
20260904174734 93 322 2.6 2.6 0.00 0.00 0.00 58 1014.6
20260904174230 93 268 5.2 7.0 0.00 0.00 0.00 56 1014.6
20260904173726 95 260 6.1 7.0 0.00 0.00 0.00 55 1014.6
20260904173226 95 246 3.5 5.2 0.00 0.00 0.00 54 1014.4
20260904172723 94 253 3.5 5.2 0.00 0.00 0.00 54 1014.6
20260904172221 93 346 3.5 5.2 0.00 0.00 0.00 54 1014.6
20260904171717 93 291 2.6 5.2 0.00 0.00 0.00 55 1014.8
20260904171212 94 279 7.0 7.8 0.00 0.00 0.00 55 1014.7
20260904170708 94 290 2.6 2.6 0.00 0.00 0.00 55 1014.9
20260904170204 93 257 5.2 6.1 0.00 0.00 0.00 56 1014.8
20260904165703 93 267 4.3 6.1 0.00 0.00 0.00 57 1014.7
20260904165202 93 306 3.5 5.2 0.00 0.00 0.00 57 1014.7
20260904164658 94 273 2.6 3.5 0.00 0.00 0.00 59 1014.9
20260904164157 94 350 0.9 1.7 0.00 0.00 0.00 57 1014.9
20260904163654 93 342 1.7 3.5 0.00 0.00 0.00 58 1014.8
20260904163149 92 285 3.5 3.5 0.00 0.00 0.00 59 1015.0
20260904162648 92 271 3.5 3.5 0.00 0.00 0.00 60 1014.9
20260904162143 92 261 1.7 3.5 0.00 0.00 0.00 60 1015.0
20260904161639 92 252 9.6 11.3 0.00 0.00 0.00 59 1014.9
20260904161133 92 261 2.6 2.6 0.00 0.00 0.00 60 1014.9
20260904160629 91 322 1.7 2.6 0.00 0.00 0.00 59 1015.1
20260904160125 91 234 4.3 5.2 0.00 0.00 0.00 61 1015.0
20260904155620 91 247 3.5 6.1 0.00 0.00 0.00 63 1015.1
20260904155114 91 273 1.7 1.7 0.00 0.00 0.00 62 1015.2
20260904154608 90 199 3.5 3.5 0.00 0.00 0.00 63 1015.0
20260904154102 90 330 1.7 2.6 0.00 0.00 0.00 64 1015.0
20260904153601 90 291 2.6 2.6 0.00 0.00 0.00 64 1014.8
20260904153053 89 227 2.6 3.5 0.00 0.00 0.00 64 1014.9
20260904152548 89 271 2.6 3.5 0.00 0.00 0.00 66 1014.9
20260904152043 89 300 2.6 3.5 0.00 0.00 0.00 64 1014.8
20260904151538 88 282 2.6 3.5 0.00 0.00 0.00 66 1014.9
20260904151038 89 353 0.0 0.9 0.00 0.00 0.00 65 1014.8
20260904150538 90 290 4.3 6.1 0.00 0.00 0.00 63 1014.8
20260904150033 87 328 2.6 2.6 0.00 0.00 0.00 67 1014.9
20260904145532 87 254 3.5 3.5 0.00 0.00 0.00 68 1014.8
20260904145027 88 340 1.7 3.5 0.00 0.00 0.00 68 1014.7
20260904144523 88 288 1.7 2.6 0.00 0.00 0.00 67 1014.5
20260904144019 86 358 0.0 0.0 0.00 0.00 0.00 69 1014.7
20260904143514 86 326 3.5 3.5 0.00 0.00 0.00 71 1014.7
20260904143011 86 306 1.7 1.7 0.00 0.00 0.00 69 1014.8
20260904142507 85 267 1.7 2.6 0.00 0.00 0.00 73 1014.6
20260904142007 84 299 0.9 0.9 0.00 0.00 0.00 73 1014.6
20260904141502 84 299 1.7 1.7 0.00 0.00 0.00 74 1014.5
20260904140958 84 236 1.7 2.6 0.00 0.00 0.00 74 1014.5
20260904140453 83 316 1.7 2.6 0.00 0.00 0.00 76 1014.5
20260904135952 83 260 2.6 2.6 0.00 0.00 0.00 76 1014.4
20260904135452 82 271 3.5 3.5 0.00 0.00 0.00 76 1014.4
20260904134948 82 214 4.3 5.2 0.00 0.00 0.00 77 1014.5
20260904134448 82 239 4.3 5.2 0.00 0.00 0.00 78 1014.5
20260904133943 81 301 0.9 1.7 0.00 0.00 0.00 78 1014.6
20260904133437 81 282 2.6 3.5 0.00 0.00 0.00 79 1014.4
20260904132933 80 311 2.6 3.5 0.00 0.00 0.00 81 1014.4
20260904132428 80 274 3.5 3.5 0.00 0.00 0.00 81 1014.2
20260904131927 79 259 2.6 3.5 0.00 0.00 0.00 81 1014.4
20260904131423 79 312 3.5 3.5 0.00 0.00 0.00 82 1014.3
20260904130919 79 293 1.7 2.6 0.00 0.00 0.00 82 1014.1
20260904130417 78 299 2.6 3.5 0.00 0.00 0.00 82 1014.0
20260904125912 78 278 2.6 3.5 0.00 0.00 0.00 82 1013.9
20260904125409 78 236 2.6 2.6 0.00 0.00 0.00 83 1014.0
20260904124908 78 344 1.7 2.6 0.00 0.00 0.00 83 1013.6
20260904124405 77 297 0.9 1.7 0.00 0.00 0.00 84 1013.6
20260904123900 77 269 2.6 2.6 0.00 0.00 0.00 85 1013.6
20260904123355 77 280 1.7 2.6 0.00 0.00 0.00 85 1013.7
20260904122851 77 250 1.7 1.7 0.00 0.00 0.00 85 1013.6
20260904122349 77 323 0.9 1.7 0.00 0.00 0.00 85 1013.9
20260904121844 77 302 1.7 1.7 0.00 0.00 0.00 85 1013.6
20260904121341 76 256 0.9 1.7 0.00 0.00 0.00 86 1013.5
20260904120837 76 290 0.9 1.7 0.00 0.00 0.00 86 1013.4
20260904120333 76 275 0.9 1.7 0.00 0.00 0.00 86 1013.6
20260904115827 76 325 0.9 0.9 0.00 0.00 0.00 87 1013.6
20260904115323 76 293 0.9 0.9 0.00 0.00 0.00 87 1013.5
20260904114823 76 327 0.9 0.9 0.00 0.00 0.00 87 1013.4
20260904114318 76 337 0.0 0.0 0.00 0.00 0.00 88 1013.4
20260904113813 76 334 0.0 0.9 0.00 0.00 0.00 88 1013.3
20260904113312 75 329 0.9 0.9 0.00 0.00 0.00 88 1013.2
20260904112807 75 333 0.9 0.9 0.00 0.00 0.00 89 1013.3
20260904112305 75 343 0.0 0.9 0.00 0.00 0.00 89 1013.3
20260904111758 76 349 0.0 0.0 0.00 0.00 0.00 88 1013.2
20260904111254 76 351 0.0 0.0 0.00 0.00 0.00 88 1013.1
20260904110749 76 339 0.0 0.0 0.00 0.00 0.00 89 1013.1
20260904110248 76 345 0.0 0.0 0.00 0.00 0.00 88 1013.1
20260904105743 76 324 0.0 0.9 0.00 0.00 0.00 88 1013.1
20260904105238 76 338 0.9 0.9 0.00 0.00 0.00 88 1013.2
20260904104733 76 345 0.9 0.9 0.00 0.00 0.00 88 1013.0
20260904104229 76 40 0.9 1.7 0.00 0.00 0.00 88 1013.0
20260904103726 76 318 0.9 1.7 0.00 0.00 0.00 88 1013.1
20260904103220 76 324 0.9 0.9 0.00 0.00 0.00 89 1013.2
20260904102716 76 337 0.0 0.0 0.00 0.00 0.00 90 1013.4
20260904102211 76 345 0.0 0.0 0.00 0.00 0.00 90 1013.2
20260904101708 76 345 0.0 0.0 0.00 0.00 0.00 90 1013.4
20260904101203 77 345 0.0 0.0 0.00 0.00 0.00 89 1013.3
20260904100654 77 340 0.0 0.0 0.00 0.00 0.00 87 1013.2
20260904100149 77 338 0.0 0.0 0.00 0.00 0.00 87 1013.3
20260904095649 77 337 0.0 0.0 0.00 0.00 0.00 86 1013.2
20260904095148 77 332 0.0 0.0 0.00 0.00 0.00 87 1013.2
20260904094644 77 333 0.9 0.9 0.00 0.00 0.00 87 1013.2
20260904094138 77 304 0.9 1.7 0.00 0.00 0.00 87 1013.3
20260904093636 77 340 0.0 0.0 0.00 0.00 0.00 87 1013.3
20260904093135 77 338 0.0 0.0 0.00 0.00 0.00 87 1013.3
20260904092631 77 325 0.9 0.9 0.00 0.00 0.00 86 1013.2
20260904092127 77 336 0.0 0.0 0.00 0.00 0.00 86 1013.2
20260904091623 77 340 0.0 0.0 0.00 0.00 0.00 87 1013.3
20260904091123 77 323 0.9 0.9 0.00 0.00 0.00 87 1013.3
20260904090618 77 312 1.7 1.7 0.00 0.00 0.00 86 1013.3
20260904090114 78 283 1.7 1.7 0.00 0.00 0.00 86 1013.3
20260904085609 78 314 1.7 1.7 0.00 0.00 0.00 86 1013.2
20260904085108 78 337 0.0 0.0 0.00 0.00 0.00 86 1012.9
20260904084604 78 306 0.9 1.7 0.00 0.00 0.00 86 1013.0
20260904084100 78 330 0.9 0.9 0.00 0.00 0.00 86 1012.8
20260904083556 78 335 0.9 0.9 0.00 0.00 0.00 86 1012.7
20260904083052 78 330 1.7 1.7 0.00 0.00 0.00 86 1012.7
20260904082547 78 321 0.9 1.7 0.00 0.00 0.00 86 1012.7
20260904082042 78 215 3.5 3.5 0.00 0.00 0.00 86 1012.7
20260904081537 78 299 3.5 3.5 0.00 0.00 0.00 86 1012.6
20260904081033 78 235 1.7 2.6 0.00 0.00 0.00 86 1012.7
20260904080528 78 300 1.7 1.7 0.00 0.00 0.00 87 1012.7
20260904080024 78 210 3.5 3.5 0.00 0.00 0.00 87 1012.5
20260904075520 78 279 2.6 3.5 0.00 0.00 0.00 87 1012.6
20260904075015 78 67 1.7 2.6 0.00 0.00 0.00 87 1012.7
20260904074509 78 250 2.6 2.6 0.00 0.00 0.00 87 1012.6
20260904074008 78 290 1.7 1.7 0.00 0.00 0.00 87 1012.6
20260904073504 78 246 2.6 2.6 0.00 0.00 0.00 87 1012.7
20260904073000 78 243 2.6 2.6 0.00 0.00 0.00 88 1012.7
20260904072456 78 229 3.5 3.5 0.00 0.00 0.00 88 1012.7
20260904071955 78 264 2.6 2.6 0.00 0.00 0.00 87 1012.8
20260904071452 78 224 0.9 1.7 0.00 0.00 0.00 87 1013.1
20260904070951 79 224 3.5 3.5 0.00 0.00 0.00 87 1013.0
20260904070450 79 238 2.6 2.6 0.00 0.00 0.00 87 1013.3
20260904065945 79 208 2.6 3.5 0.00 0.00 0.00 87 1013.2
20260904065441 79 196 3.5 3.5 0.00 0.00 0.00 86 1013.3
20260904064936 79 148 1.7 1.7 0.00 0.00 0.00 86 1013.2
20260904064432 79 341 1.7 1.7 0.00 0.00 0.00 86 1013.2
20260904063927 79 81 1.7 2.6 0.00 0.00 0.00 86 1013.3
20260904063424 79 218 2.6 3.5 0.00 0.00 0.00 86 1013.3
20260904062919 79 285 1.7 1.7 0.00 0.00 0.00 86 1013.5
20260904062415 79 230 1.7 2.6 0.00 0.00 0.00 86 1013.7
20260904061910 79 293 1.7 1.7 0.00 0.00 0.00 86 1013.7
20260904061407 80 341 0.9 0.9 0.00 0.00 0.00 86 1013.7
20260904060903 80 0 0.9 1.7 0.00 0.00 0.00 86 1013.5
20260904060358 80 305 1.7 1.7 0.00 0.00 0.00 86 1013.7
20260904055853 80 333 0.9 0.9 0.00 0.00 0.00 86 1013.7
20260904055348 80 337 0.0 0.9 0.00 0.00 0.00 86 1013.5
20260904054844 80 216 1.7 1.7 0.00 0.00 0.00 85 1013.7
20260904054340 80 237 1.7 1.7 0.00 0.00 0.00 86 1013.5
20260904053835 80 329 0.9 0.9 0.00 0.00 0.00 86 1013.9
20260904053334 80 0 0.9 0.9 0.00 0.00 0.00 86 1013.6
20260904052830 80 319 1.7 1.7 0.00 0.00 0.00 86 1013.5
20260904052327 80 226 3.5 3.5 0.00 0.00 0.00 86 1013.5
20260904051823 80 316 1.7 1.7 0.00 0.00 0.00 86 1013.5
20260904051318 80 27 1.7 2.6 0.00 0.00 0.00 85 1013.4
20260904050813 81 329 1.7 1.7 0.00 0.00 0.00 85 1013.3
20260904050310 81 232 2.6 2.6 0.00 0.00 0.00 85 1013.3
20260904045805 81 261 0.9 1.7 0.00 0.00 0.00 84 1013.5
20260904045307 81 311 1.7 1.7 0.00 0.00 0.00 84 1013.4
20260904044759 82 303 1.7 2.6 0.00 0.00 0.00 83 1013.4
20260904044256 82 295 1.7 1.7 0.00 0.00 0.00 83 1013.6
20260904043752 82 230 1.7 2.6 0.00 0.00 0.00 83 1013.4
20260904043249 82 341 0.9 1.7 0.00 0.00 0.00 83 1013.5
20260904042743 82 345 1.7 1.7 0.00 0.00 0.00 82 1013.4